LO-74
1 39440U 13066AA 15218.75530524 .00000666 00000-0 10220-3 0 9990
2 39440 097.7204 274.2733 0081432 345.4713 014.4156 14.74639484 91780
PUCPSAT-1
1 39442U 13066AC 15218.83281111 .00001214 00000-0 13454-3 0 9998
2 39442 097.7362 287.6899 0031862 317.7730 042.1034 14.88766699 91407
SPROUT
1 39770U 14029E 15218.55394057 .00001363 00000-0 17020-3 0 9993
2 39770 097.8732 314.6907 0010459 044.1261 316.0791 14.83963261 65103
POPSAT-HIP1
1 40028U 14033U 15219.39227219 .00001130 00000-0 13180-3 0 9999
2 40028 097.9498 119.8080 0015050 019.2009 340.9756 14.87147984 61397
EO-80
1 40032U 14033Y 15219.26432705 .00001216 00000-0 14243-3 0 9994
2 40032 097.9464 119.3073 0012752 017.3411 342.8238 14.86830794 61375
VELOX-1
1 40057U 14034E 15219.38734061 .00001030 00000-0 15730-3 0 9991
2 40057 098.2149 298.3280 0012649 076.9222 283.3397 14.75968489 59430
DAURIA DX 1
1 40071U 14037C 15219.49486148 .00000465 00000-0 68229-4 0 9995
2 40071 098.3542 293.0150 0009828 077.6954 282.5358 14.80459951 58383
UKUBE-1
1 40074U 14037F 15219.40005724 .00001051 00000-0 13870-3 0 9999
2 40074 098.3564 293.8630 0006023 085.2795 274.9105 14.82330148 58421
HODOYOSHI-1
1 40299U 14070B 15219.44174229 .00002172 00000-0 10499-3 0 9995
2 40299 097.4550 300.3223 0011916 319.6242 100.0850 15.19633942 41602
CHUBUSAT-1
1 40300U 14070C 15219.45031604 .00002321 00000-0 11707-3 0 9997
2 40300 097.4516 299.4686 0021107 319.0700 103.6313 15.17954578 41550
QSAT-EOS
1 40301U 14070D 15219.44049323 .00004193 00000-0 20950-3 0 9993
2 40301 097.4477 298.7544 0030622 318.4761 101.4853 15.17609715 41515
TSUBAME
1 40302U 14070E 15219.44710704 .00002077 00000-0 11802-3 0 9997
2 40302 097.4454 297.3079 0041850 322.5872 101.7436 15.13288733 41422
FIREBIRD FU3
1 40377U 15003B 15219.07485255 .00009179 00000-0 44932-3 0 9995
2 40377 099.1144 261.9728 0157160 086.9948 274.9247 15.08203573 28223
FIREBIRD FU4
1 40378U 15003C 15219.07223049 .00008883 00000-0 43444-3 0 9995
2 40378 099.1146 261.9775 0157431 086.9701 274.9524 15.08212084 28221
GRIFEX
1 40379U 15003D 15219.06823994 .00007690 00000-0 38444-3 0 9999
2 40379 099.1161 261.8298 0158824 088.4347 273.5062 15.07390986 28216
LAMBDA-SAT
1 40458U 98067GB 15136.30676273 .20783109 12527-4 14817-2 0 9995
2 40458 051.6075 233.7697 0010355 318.5347 043.1720 16.39926603 21161
NO-84
1 40654U 15219.38924003 .00009142 00000-0 23678-3 0 00868
2 40654 054.9918 358.2514 0243820 016.2655 344.6121 15.14940216011937
NO-83
1 40655U 15219.43202397 .00011754 00000-0 29612-3 0 00945
2 40655 054.9929 357.8362 0241499 016.5525 344.3185 15.15749183011944
DEORBITSAIL
1 40719U 15032E 15219.27604060 .00000358 00000-0 61346-4 0 9995
2 40719 098.0489 108.2356 0016735 162.3244 197.8556 14.74606946 4068
